Location: Aufkirchen
(47.9603°N, 11.3653°E)
Time: 03:54:07
(UTC+02:00)

ISS - Visible Passes

Search period start: 29 May 2017 00:00
Search period end: 08 June 2017 00:00
Orbit: 402 x 408 km, 51.6° (Epoch: 29 May)

Date Brightness Start Highest point End Pass type
(mag) Time Alt. Az. Time Alt. Az. Time Alt. Az.
29 May -3.1 00:51:21 10° WNW 00:54:36 55° NNE 00:56:00 29° E visible
29 May -1.5 02:27:56 10° WNW 02:28:36 15° W 02:28:36 15° W visible
29 May -2.8 22:22:24 10° W 22:25:37 50° NNW 22:28:51 10° ENE visible
29 May -2.7 23:59:17 10° WNW 00:02:28 45° N 00:05:08 14° E visible
30 May -2.6 01:35:49 10° WNW 01:37:45 32° W 01:37:45 32° W visible
30 May -2.5 23:07:09 10° WNW 23:10:19 42° N 23:13:28 10° ENE visible
31 May -3.9 00:43:45 10° WNW 00:47:04 83° NNE 00:47:06 83° NE visible
31 May -2.5 22:14:58 10° WNW 22:18:08 42° N 22:21:18 10° ENE visible
31 May -3.4 23:51:41 10° WNW 23:54:58 60° NNE 23:56:31 27° E visible
01 Jun -1.5 01:28:20 10° WNW 01:29:09 16° W 01:29:09 16° W visible
01 Jun -2.9 22:59:36 10° WNW 23:02:48 48° N 23:06:00 10° E visible
02 Jun -3.1 00:36:08 10° WNW 00:38:38 42° WSW 00:38:38 42° WSW visible
02 Jun -2.6 22:07:27 10° WNW 22:10:37 42° N 22:13:47 10° ENE visible
02 Jun -3.9 23:44:01 10° WNW 23:47:20 85° SSW 23:48:10 47° ESE visible
03 Jun -3.5 22:51:54 10° WNW 22:55:12 67° NNE 22:57:43 16° E visible
04 Jun -2.1 00:28:38 10° W 00:30:21 22° WSW 00:30:21 22° WSW visible
04 Jun -3.1 21:59:47 10° WNW 22:03:02 52° NNE 22:06:16 10° E visible
04 Jun -3.5 23:36:21 10° WNW 23:39:32 46° SSW 23:39:56 43° S visible
05 Jun -3.9 22:44:10 10° WNW 22:47:28 74° SSW 22:49:33 21° SE visible
06 Jun -1.3 00:21:38 10° WSW 00:22:11 12° WSW 00:22:11 12° WSW visible
06 Jun -3.7 21:52:01 10° WNW 21:55:20 76° NNE 21:58:36 10° ESE visible
06 Jun -2.4 23:28:52 10° W 23:31:34 23° SW 23:31:49 23° SSW visible
07 Jun -3.0 22:36:28 10° WNW 22:39:34 38° SW 22:41:29 19° SSE visible
